owner,sensor,date,latitude,longitude,vertical_datum,sea_water_temperature,qcFlag 
ENP,ioos.station.NOAA.NDBC:CNBF1:1,2019-04-01T00:00:00Z,25.7020,-81.1860,1.0,27.25,11111222 
ENP,ioos.station.NOAA.NDBC:CNBF1:1,2019-04-01T01:00:00Z,25.7020,-81.1860,1.0,26.96,11111222 
ENP,ioos.station.NOAA.NDBC:CNBF1:1,2019-04-01T02:00:00Z,25.7020,-81.1860,1.0,26.71,11111222 
ENP,ioos.station.NOAA.NDBC:CNBF1:1,2019-04-01T03:00:00Z,25.7020,-81.1860,1.0,26.5,11111222 
ENP,ioos.station.NOAA.NDBC:CNBF1:1,2019-04-01T04:00:00Z,25.7020,-81.1860,1.0,26.35,11111222 
ENP,ioos.station.NOAA.NDBC:CNBF1:1,2019-04-01T05:00:00Z,25.7020,-81.1860,1.0,26.2,11111222 
ENP,ioos.station.NOAA.NDBC:CNBF1:1,2019-04-01T06:00:00Z,25.7020,-81.1860,1.0,26.0,11111222 
ENP,ioos.station.NOAA.NDBC:CNBF1:1,2019-04-01T07:00:00Z,25.7020,-81.1860,1.0,25.84,11111222 
ENP,ioos.station.NOAA.NDBC:CNBF1:1,2019-04-01T08:00:00Z,25.7020,-81.1860,1.0,25.67,11111222 
ENP,ioos.station.NOAA.NDBC:CNBF1:1,2019-04-01T09:00:00Z,25.7020,-81.1860,1.0,25.55,11111222 
ENP,ioos.station.NOAA.NDBC:CNBF1:1,2019-04-01T10:00:00Z,25.7020,-81.1860,1.0,25.42,11111222 
ENP,ioos.station.NOAA.NDBC:CNBF1:1,2019-04-01T11:00:00Z,25.7020,-81.1860,1.0,25.27,11111222 
ENP,ioos.station.NOAA.NDBC:CNBF1:1,2019-04-01T12:00:00Z,25.7020,-81.1860,1.0,25.11,11111222 
ENP,ioos.station.NOAA.NDBC:CNBF1:1,2019-04-01T13:00:00Z,25.7020,-81.1860,1.0,24.97,11111222 
ENP,ioos.station.NOAA.NDBC:CNBF1:1,2019-04-01T14:00:00Z,25.7020,-81.1860,1.0,24.92,11111222 
ENP,ioos.station.NOAA.NDBC:CNBF1:1,2019-04-01T15:00:00Z,25.7020,-81.1860,1.0,24.98,11111222 
ENP,ioos.station.NOAA.NDBC:CNBF1:1,2019-04-01T16:00:00Z,25.7020,-81.1860,1.0,25.26,11111222 
ENP,ioos.station.NOAA.NDBC:CNBF1:1,2019-04-01T17:00:00Z,25.7020,-81.1860,1.0,25.73,11111222 
ENP,ioos.station.NOAA.NDBC:CNBF1:1,2019-04-01T18:00:00Z,25.7020,-81.1860,1.0,26.59,11111222 
ENP,ioos.station.NOAA.NDBC:CNBF1:1,2019-04-01T19:00:00Z,25.7020,-81.1860,1.0,27.12,11111222 
ENP,ioos.station.NOAA.NDBC:CNBF1:1,2019-04-01T20:00:00Z,25.7020,-81.1860,1.0,27.37,11111222 
ENP,ioos.station.NOAA.NDBC:CNBF1:1,2019-04-01T21:00:00Z,25.7020,-81.1860,1.0,27.49,11111222 
ENP,ioos.station.NOAA.NDBC:CNBF1:1,2019-04-01T22:00:00Z,25.7020,-81.1860,1.0,27.54,11111222 
ENP,ioos.station.NOAA.NDBC:CNBF1:1,2019-04-01T23:00:00Z,25.7020,-81.1860,1.0,27.55,11111222 
ENP,ioos.station.NOAA.NDBC:CNBF1:1,2019-04-02T00:00:00Z,25.7020,-81.1860,1.0,27.51,11111222 
ENP,ioos.station.NOAA.NDBC:CNBF1:1,2019-04-02T01:00:00Z,25.7020,-81.1860,1.0,27.38,11111222 
ENP,ioos.station.NOAA.NDBC:CNBF1:1,2019-04-02T03:00:00Z,25.7020,-81.1860,1.0,27.1,11111222 
ENP,ioos.station.NOAA.NDBC:CNBF1:1,2019-04-02T04:00:00Z,25.7020,-81.1860,1.0,26.95,11111222 
ENP,ioos.station.NOAA.NDBC:CNBF1:1,2019-04-02T05:00:00Z,25.7020,-81.1860,1.0,26.8,11111222 
ENP,ioos.station.NOAA.NDBC:CNBF1:1,2019-04-02T06:00:00Z,25.7020,-81.1860,1.0,26.64,11111222 
ENP,ioos.station.NOAA.NDBC:CNBF1:1,2019-04-02T07:00:00Z,25.7020,-81.1860,1.0,26.5,11111222 
ENP,ioos.station.NOAA.NDBC:CNBF1:1,2019-04-02T08:00:00Z,25.7020,-81.1860,1.0,26.37,11111222 
ENP,ioos.station.NOAA.NDBC:CNBF1:1,2019-04-02T09:00:00Z,25.7020,-81.1860,1.0,26.26,11111222 
ENP,ioos.station.NOAA.NDBC:CNBF1:1,2019-04-02T10:00:00Z,25.7020,-81.1860,1.0,26.14,11111222 
ENP,ioos.station.NOAA.NDBC:CNBF1:1,2019-04-02T11:00:00Z,25.7020,-81.1860,1.0,26.02,11111222 
ENP,ioos.station.NOAA.NDBC:CNBF1:1,2019-04-02T12:00:00Z,25.7020,-81.1860,1.0,25.88,11111222 
ENP,ioos.station.NOAA.NDBC:CNBF1:1,2019-04-02T13:00:00Z,25.7020,-81.1860,1.0,25.76,11111222 
ENP,ioos.station.NOAA.NDBC:CNBF1:1,2019-04-02T14:00:00Z,25.7020,-81.1860,1.0,25.72,11111222 
ENP,ioos.station.NOAA.NDBC:CNBF1:1,2019-04-02T15:00:00Z,25.7020,-81.1860,1.0,25.83,11111222 
ENP,ioos.station.NOAA.NDBC:CNBF1:1,2019-04-02T16:00:00Z,25.7020,-81.1860,1.0,26.24,11111222 
ENP,ioos.station.NOAA.NDBC:CNBF1:1,2019-04-02T17:00:00Z,25.7020,-81.1860,1.0,26.7,11111222 
ENP,ioos.station.NOAA.NDBC:CNBF1:1,2019-04-02T18:00:00Z,25.7020,-81.1860,1.0,27.01,11111222 
ENP,ioos.station.NOAA.NDBC:CNBF1:1,2019-04-02T19:00:00Z,25.7020,-81.1860,1.0,27.25,11111222 
ENP,ioos.station.NOAA.NDBC:CNBF1:1,2019-04-02T20:00:00Z,25.7020,-81.1860,1.0,27.39,11111222 
ENP,ioos.station.NOAA.NDBC:CNBF1:1,2019-04-02T21:00:00Z,25.7020,-81.1860,1.0,27.58,11111222 
ENP,ioos.station.NOAA.NDBC:CNBF1:1,2019-04-02T22:00:00Z,25.7020,-81.1860,1.0,27.7,11111222 
ENP,ioos.station.NOAA.NDBC:CNBF1:1,2019-04-02T23:00:00Z,25.7020,-81.1860,1.0,27.77,11111222 
ENP,ioos.station.NOAA.NDBC:CNBF1:1,2019-04-03T00:00:00Z,25.7020,-81.1860,1.0,27.76,11111222 
ENP,ioos.station.NOAA.NDBC:CNBF1:1,2019-04-03T01:00:00Z,25.7020,-81.1860,1.0,27.7,11111222 
ENP,ioos.station.NOAA.NDBC:CNBF1:1,2019-04-03T02:00:00Z,25.7020,-81.1860,1.0,27.51,11111222 
ENP,ioos.station.NOAA.NDBC:CNBF1:1,2019-04-03T03:00:00Z,25.7020,-81.1860,1.0,27.4,11111222 
ENP,ioos.station.NOAA.NDBC:CNBF1:1,2019-04-03T04:00:00Z,25.7020,-81.1860,1.0,27.25,11111222 
ENP,ioos.station.NOAA.NDBC:CNBF1:1,2019-04-03T05:00:00Z,25.7020,-81.1860,1.0,27.1,11111222 
ENP,ioos.station.NOAA.NDBC:CNBF1:1,2019-04-03T06:00:00Z,25.7020,-81.1860,1.0,26.96,11111222 
ENP,ioos.station.NOAA.NDBC:CNBF1:1,2019-04-03T07:00:00Z,25.7020,-81.1860,1.0,26.83,11111222 
ENP,ioos.station.NOAA.NDBC:CNBF1:1,2019-04-03T08:00:00Z,25.7020,-81.1860,1.0,26.66,11111222 
ENP,ioos.station.NOAA.NDBC:CNBF1:1,2019-04-03T09:00:00Z,25.7020,-81.1860,1.0,26.51,11111222 
ENP,ioos.station.NOAA.NDBC:CNBF1:1,2019-04-03T10:00:00Z,25.7020,-81.1860,1.0,26.34,11111222 
ENP,ioos.station.NOAA.NDBC:CNBF1:1,2019-04-03T11:00:00Z,25.7020,-81.1860,1.0,26.19,11111222 
ENP,ioos.station.NOAA.NDBC:CNBF1:1,2019-04-03T12:00:00Z,25.7020,-81.1860,1.0,26.06,11111222 
ENP,ioos.station.NOAA.NDBC:CNBF1:1,2019-04-03T13:00:00Z,25.7020,-81.1860,1.0,25.95,11111222 
ENP,ioos.station.NOAA.NDBC:CNBF1:1,2019-04-03T14:00:00Z,25.7020,-81.1860,1.0,25.84,11111222 
ENP,ioos.station.NOAA.NDBC:CNBF1:1,2019-04-03T15:00:00Z,25.7020,-81.1860,1.0,25.82,11111222 
ENP,ioos.station.NOAA.NDBC:CNBF1:1,2019-04-03T16:00:00Z,25.7020,-81.1860,1.0,25.93,11111222 
ENP,ioos.station.NOAA.NDBC:CNBF1:1,2019-04-03T17:00:00Z,25.7020,-81.1860,1.0,26.1,11111222 
ENP,ioos.station.NOAA.NDBC:CNBF1:1,2019-04-03T18:00:00Z,25.7020,-81.1860,1.0,26.25,11111222 
ENP,ioos.station.NOAA.NDBC:CNBF1:1,2019-04-03T19:00:00Z,25.7020,-81.1860,1.0,26.51,11111222 
ENP,ioos.station.NOAA.NDBC:CNBF1:1,2019-04-03T20:00:00Z,25.7020,-81.1860,1.0,26.7,11111222 
ENP,ioos.station.NOAA.NDBC:CNBF1:1,2019-04-03T21:00:00Z,25.7020,-81.1860,1.0,26.86,11111222 
ENP,ioos.station.NOAA.NDBC:CNBF1:1,2019-04-03T22:00:00Z,25.7020,-81.1860,1.0,26.97,11111222 
ENP,ioos.station.NOAA.NDBC:CNBF1:1,2019-04-03T23:00:00Z,25.7020,-81.1860,1.0,27.02,11111222 
ENP,ioos.station.NOAA.NDBC:CNBF1:1,2019-04-04T00:00:00Z,25.7020,-81.1860,1.0,27.0,11111222 
ENP,ioos.station.NOAA.NDBC:CNBF1:1,2019-04-04T01:00:00Z,25.7020,-81.1860,1.0,26.95,11111222 
ENP,ioos.station.NOAA.NDBC:CNBF1:1,2019-04-04T02:00:00Z,25.7020,-81.1860,1.0,26.82,11111222 
ENP,ioos.station.NOAA.NDBC:CNBF1:1,2019-04-04T03:00:00Z,25.7020,-81.1860,1.0,26.7,11111222 
ENP,ioos.station.NOAA.NDBC:CNBF1:1,2019-04-04T04:00:00Z,25.7020,-81.1860,1.0,26.65,11111222 
ENP,ioos.station.NOAA.NDBC:CNBF1:1,2019-04-04T05:00:00Z,25.7020,-81.1860,1.0,26.53,11111222 
ENP,ioos.station.NOAA.NDBC:CNBF1:1,2019-04-04T06:00:00Z,25.7020,-81.1860,1.0,26.41,11111222 
ENP,ioos.station.NOAA.NDBC:CNBF1:1,2019-04-04T07:00:00Z,25.7020,-81.1860,1.0,26.26,11111222 
ENP,ioos.station.NOAA.NDBC:CNBF1:1,2019-04-04T08:00:00Z,25.7020,-81.1860,1.0,26.12,11111222 
ENP,ioos.station.NOAA.NDBC:CNBF1:1,2019-04-04T09:00:00Z,25.7020,-81.1860,1.0,26.01,11111222 
ENP,ioos.station.NOAA.NDBC:CNBF1:1,2019-04-04T10:00:00Z,25.7020,-81.1860,1.0,25.9,11111222 
ENP,ioos.station.NOAA.NDBC:CNBF1:1,2019-04-04T11:00:00Z,25.7020,-81.1860,1.0,25.82,11111222 
ENP,ioos.station.NOAA.NDBC:CNBF1:1,2019-04-04T12:00:00Z,25.7020,-81.1860,1.0,25.74,11111222 
ENP,ioos.station.NOAA.NDBC:CNBF1:1,2019-04-04T13:00:00Z,25.7020,-81.1860,1.0,25.66,11111222 
ENP,ioos.station.NOAA.NDBC:CNBF1:1,2019-04-04T14:00:00Z,25.7020,-81.1860,1.0,25.59,11111222 
ENP,ioos.station.NOAA.NDBC:CNBF1:1,2019-04-04T15:00:00Z,25.7020,-81.1860,1.0,25.56,11111222 
ENP,ioos.station.NOAA.NDBC:CNBF1:1,2019-04-04T16:00:00Z,25.7020,-81.1860,1.0,25.65,11111222 
ENP,ioos.station.NOAA.NDBC:CNBF1:1,2019-04-04T17:00:00Z,25.7020,-81.1860,1.0,25.9,11111222 
ENP,ioos.station.NOAA.NDBC:CNBF1:1,2019-04-04T18:00:00Z,25.7020,-81.1860,1.0,26.05,11111222 
ENP,ioos.station.NOAA.NDBC:CNBF1:1,2019-04-04T19:00:00Z,25.7020,-81.1860,1.0,26.12,11111222 
ENP,ioos.station.NOAA.NDBC:CNBF1:1,2019-04-04T20:00:00Z,25.7020,-81.1860,1.0,26.25,11111222 
ENP,ioos.station.NOAA.NDBC:CNBF1:1,2019-04-04T21:00:00Z,25.7020,-81.1860,1.0,26.27,11111222 
ENP,ioos.station.NOAA.NDBC:CNBF1:1,2019-04-04T22:00:00Z,25.7020,-81.1860,1.0,26.31,11111222 
ENP,ioos.station.NOAA.NDBC:CNBF1:1,2019-04-04T23:00:00Z,25.7020,-81.1860,1.0,26.32,11111222 
ENP,ioos.station.NOAA.NDBC:CNBF1:1,2019-04-05T00:00:00Z,25.7020,-81.1860,1.0,26.32,11111222 
ENP,ioos.station.NOAA.NDBC:CNBF1:1,2019-04-05T01:00:00Z,25.7020,-81.1860,1.0,26.29,11111222 
ENP,ioos.station.NOAA.NDBC:CNBF1:1,2019-04-05T02:00:00Z,25.7020,-81.1860,1.0,26.26,11111222 
ENP,ioos.station.NOAA.NDBC:CNBF1:1,2019-04-05T03:00:00Z,25.7020,-81.1860,1.0,26.2,11111222 
ENP,ioos.station.NOAA.NDBC:CNBF1:1,2019-04-05T04:00:00Z,25.7020,-81.1860,1.0,26.25,11111222 
ENP,ioos.station.NOAA.NDBC:CNBF1:1,2019-04-05T05:00:00Z,25.7020,-81.1860,1.0,26.3,11111222 
ENP,ioos.station.NOAA.NDBC:CNBF1:1,2019-04-05T06:00:00Z,25.7020,-81.1860,1.0,26.24,11111222 
ENP,ioos.station.NOAA.NDBC:CNBF1:1,2019-04-05T07:00:00Z,25.7020,-81.1860,1.0,26.06,11111222 
ENP,ioos.station.NOAA.NDBC:CNBF1:1,2019-04-05T08:00:00Z,25.7020,-81.1860,1.0,25.79,11111222 
ENP,ioos.station.NOAA.NDBC:CNBF1:1,2019-04-05T09:00:00Z,25.7020,-81.1860,1.0,25.65,11111222 
ENP,ioos.station.NOAA.NDBC:CNBF1:1,2019-04-05T10:00:00Z,25.7020,-81.1860,1.0,25.72,11111222 
ENP,ioos.station.NOAA.NDBC:CNBF1:1,2019-04-05T11:00:00Z,25.7020,-81.1860,1.0,25.53,11111222 
ENP,ioos.station.NOAA.NDBC:CNBF1:1,2019-04-05T12:00:00Z,25.7020,-81.1860,1.0,25.3,11111222 
ENP,ioos.station.NOAA.NDBC:CNBF1:1,2019-04-05T13:00:00Z,25.7020,-81.1860,1.0,25.25,11111222 
ENP,ioos.station.NOAA.NDBC:CNBF1:1,2019-04-05T14:00:00Z,25.7020,-81.1860,1.0,25.35,11111222 
ENP,ioos.station.NOAA.NDBC:CNBF1:1,2019-04-05T15:00:00Z,25.7020,-81.1860,1.0,25.55,11111222 
ENP,ioos.station.NOAA.NDBC:CNBF1:1,2019-04-05T16:00:00Z,25.7020,-81.1860,1.0,25.8,11111222 
ENP,ioos.station.NOAA.NDBC:CNBF1:1,2019-04-05T17:00:00Z,25.7020,-81.1860,1.0,26.16,11111222 
ENP,ioos.station.NOAA.NDBC:CNBF1:1,2019-04-05T18:00:00Z,25.7020,-81.1860,1.0,26.61,11111222 
ENP,ioos.station.NOAA.NDBC:CNBF1:1,2019-04-05T19:00:00Z,25.7020,-81.1860,1.0,27.09,11111222 
ENP,ioos.station.NOAA.NDBC:CNBF1:1,2019-04-05T20:00:00Z,25.7020,-81.1860,1.0,27.45,11111222 
ENP,ioos.station.NOAA.NDBC:CNBF1:1,2019-04-05T21:00:00Z,25.7020,-81.1860,1.0,27.73,11111222 
ENP,ioos.station.NOAA.NDBC:CNBF1:1,2019-04-05T22:00:00Z,25.7020,-81.1860,1.0,27.74,11111222 
ENP,ioos.station.NOAA.NDBC:CNBF1:1,2019-04-05T23:00:00Z,25.7020,-81.1860,1.0,27.66,11111222 
ENP,ioos.station.NOAA.NDBC:CNBF1:1,2019-04-06T00:00:00Z,25.7020,-81.1860,1.0,27.56,11111222 
ENP,ioos.station.NOAA.NDBC:CNBF1:1,2019-04-06T01:00:00Z,25.7020,-81.1860,1.0,27.43,11111222 
ENP,ioos.station.NOAA.NDBC:CNBF1:1,2019-04-06T02:00:00Z,25.7020,-81.1860,1.0,27.25,11111222 
ENP,ioos.station.NOAA.NDBC:CNBF1:1,2019-04-06T03:00:00Z,25.7020,-81.1860,1.0,27.1,11111222 
ENP,ioos.station.NOAA.NDBC:CNBF1:1,2019-04-06T04:00:00Z,25.7020,-81.1860,1.0,26.98,11111222 
ENP,ioos.station.NOAA.NDBC:CNBF1:1,2019-04-06T05:00:00Z,25.7020,-81.1860,1.0,26.9,11111222 
ENP,ioos.station.NOAA.NDBC:CNBF1:1,2019-04-06T06:00:00Z,25.7020,-81.1860,1.0,26.72,11111222 
ENP,ioos.station.NOAA.NDBC:CNBF1:1,2019-04-06T07:00:00Z,25.7020,-81.1860,1.0,26.58,11111222 
ENP,ioos.station.NOAA.NDBC:CNBF1:1,2019-04-06T08:00:00Z,25.7020,-81.1860,1.0,26.45,11111222 
ENP,ioos.station.NOAA.NDBC:CNBF1:1,2019-04-06T09:00:00Z,25.7020,-81.1860,1.0,26.32,11111222 
ENP,ioos.station.NOAA.NDBC:CNBF1:1,2019-04-06T10:00:00Z,25.7020,-81.1860,1.0,26.2,11111222 
ENP,ioos.station.NOAA.NDBC:CNBF1:1,2019-04-06T11:00:00Z,25.7020,-81.1860,1.0,26.14,11111222 
ENP,ioos.station.NOAA.NDBC:CNBF1:1,2019-04-06T12:00:00Z,25.7020,-81.1860,1.0,26.08,11111222 
ENP,ioos.station.NOAA.NDBC:CNBF1:1,2019-04-06T13:00:00Z,25.7020,-81.1860,1.0,25.98,11111222 
ENP,ioos.station.NOAA.NDBC:CNBF1:1,2019-04-06T14:00:00Z,25.7020,-81.1860,1.0,25.92,11111222 
ENP,ioos.station.NOAA.NDBC:CNBF1:1,2019-04-06T15:00:00Z,25.7020,-81.1860,1.0,25.93,11111222 
ENP,ioos.station.NOAA.NDBC:CNBF1:1,2019-04-06T16:00:00Z,25.7020,-81.1860,1.0,26.13,11111222 
ENP,ioos.station.NOAA.NDBC:CNBF1:1,2019-04-06T17:00:00Z,25.7020,-81.1860,1.0,26.6,11111222 
ENP,ioos.station.NOAA.NDBC:CNBF1:1,2019-04-06T18:00:00Z,25.7020,-81.1860,1.0,27.32,11111222 
ENP,ioos.station.NOAA.NDBC:CNBF1:1,2019-04-06T19:00:00Z,25.7020,-81.1860,1.0,27.87,11111222 
ENP,ioos.station.NOAA.NDBC:CNBF1:1,2019-04-06T20:00:00Z,25.7020,-81.1860,1.0,28.17,11111222 
ENP,ioos.station.NOAA.NDBC:CNBF1:1,2019-04-06T21:00:00Z,25.7020,-81.1860,1.0,28.33,11111222 
ENP,ioos.station.NOAA.NDBC:CNBF1:1,2019-04-06T22:00:00Z,25.7020,-81.1860,1.0,28.44,11111222 
ENP,ioos.station.NOAA.NDBC:CNBF1:1,2019-04-06T23:00:00Z,25.7020,-81.1860,1.0,28.54,11111222 
ENP,ioos.station.NOAA.NDBC:CNBF1:1,2019-04-07T00:00:00Z,25.7020,-81.1860,1.0,28.53,11111222 
ENP,ioos.station.NOAA.NDBC:CNBF1:1,2019-04-07T01:00:00Z,25.7020,-81.1860,1.0,28.44,11111222 
ENP,ioos.station.NOAA.NDBC:CNBF1:1,2019-04-07T02:00:00Z,25.7020,-81.1860,1.0,28.31,11111222 
ENP,ioos.station.NOAA.NDBC:CNBF1:1,2019-04-07T03:00:00Z,25.7020,-81.1860,1.0,28.2,11111222 
ENP,ioos.station.NOAA.NDBC:CNBF1:1,2019-04-07T04:00:00Z,25.7020,-81.1860,1.0,28.05,11111222 
ENP,ioos.station.NOAA.NDBC:CNBF1:1,2019-04-07T05:00:00Z,25.7020,-81.1860,1.0,28.0,11111222 
ENP,ioos.station.NOAA.NDBC:CNBF1:1,2019-04-07T06:00:00Z,25.7020,-81.1860,1.0,27.82,11111222 
ENP,ioos.station.NOAA.NDBC:CNBF1:1,2019-04-07T07:00:00Z,25.7020,-81.1860,1.0,27.62,11111222 
ENP,ioos.station.NOAA.NDBC:CNBF1:1,2019-04-07T08:00:00Z,25.7020,-81.1860,1.0,27.48,11111222 
ENP,ioos.station.NOAA.NDBC:CNBF1:1,2019-04-07T09:00:00Z,25.7020,-81.1860,1.0,27.36,11111222 
ENP,ioos.station.NOAA.NDBC:CNBF1:1,2019-04-07T10:00:00Z,25.7020,-81.1860,1.0,27.26,11111222 
ENP,ioos.station.NOAA.NDBC:CNBF1:1,2019-04-07T11:00:00Z,25.7020,-81.1860,1.0,27.18,11111222 
ENP,ioos.station.NOAA.NDBC:CNBF1:1,2019-04-07T12:00:00Z,25.7020,-81.1860,1.0,27.11,11111222 
ENP,ioos.station.NOAA.NDBC:CNBF1:1,2019-04-07T13:00:00Z,25.7020,-81.1860,1.0,27.02,11111222 
ENP,ioos.station.NOAA.NDBC:CNBF1:1,2019-04-07T14:00:00Z,25.7020,-81.1860,1.0,26.94,11111222 
ENP,ioos.station.NOAA.NDBC:CNBF1:1,2019-04-07T15:00:00Z,25.7020,-81.1860,1.0,27.04,11111222 
ENP,ioos.station.NOAA.NDBC:CNBF1:1,2019-04-07T16:00:00Z,25.7020,-81.1860,1.0,27.33,11111222 
ENP,ioos.station.NOAA.NDBC:CNBF1:1,2019-04-07T17:00:00Z,25.7020,-81.1860,1.0,27.76,11111222 
ENP,ioos.station.NOAA.NDBC:CNBF1:1,2019-04-07T18:00:00Z,25.7020,-81.1860,1.0,28.01,11111222 
ENP,ioos.station.NOAA.NDBC:CNBF1:1,2019-04-07T19:00:00Z,25.7020,-81.1860,1.0,28.19,11111222 
ENP,ioos.station.NOAA.NDBC:CNBF1:1,2019-04-07T20:00:00Z,25.7020,-81.1860,1.0,28.38,11111222 
ENP,ioos.station.NOAA.NDBC:CNBF1:1,2019-04-07T21:00:00Z,25.7020,-81.1860,1.0,28.61,11111222 
ENP,ioos.station.NOAA.NDBC:CNBF1:1,2019-04-07T22:00:00Z,25.7020,-81.1860,1.0,28.74,11111222 
ENP,ioos.station.NOAA.NDBC:CNBF1:1,2019-04-07T23:00:00Z,25.7020,-81.1860,1.0,28.77,11111222 
ENP,ioos.station.NOAA.NDBC:CNBF1:1,2019-04-08T00:00:00Z,25.7020,-81.1860,1.0,28.7,11111222 
ENP,ioos.station.NOAA.NDBC:CNBF1:1,2019-04-08T01:00:00Z,25.7020,-81.1860,1.0,28.58,11111222 
ENP,ioos.station.NOAA.NDBC:CNBF1:1,2019-04-08T02:00:00Z,25.7020,-81.1860,1.0,28.46,11111222 
ENP,ioos.station.NOAA.NDBC:CNBF1:1,2019-04-08T03:00:00Z,25.7020,-81.1860,1.0,28.3,11111222 
ENP,ioos.station.NOAA.NDBC:CNBF1:1,2019-04-08T04:00:00Z,25.7020,-81.1860,1.0,28.18,11111222 
ENP,ioos.station.NOAA.NDBC:CNBF1:1,2019-04-08T05:00:00Z,25.7020,-81.1860,1.0,28.1,11111222 
ENP,ioos.station.NOAA.NDBC:CNBF1:1,2019-04-08T06:00:00Z,25.7020,-81.1860,1.0,28.01,11111222 
ENP,ioos.station.NOAA.NDBC:CNBF1:1,2019-04-08T07:00:00Z,25.7020,-81.1860,1.0,27.83,11111222 
ENP,ioos.station.NOAA.NDBC:CNBF1:1,2019-04-08T08:00:00Z,25.7020,-81.1860,1.0,27.67,11111222 
ENP,ioos.station.NOAA.NDBC:CNBF1:1,2019-04-08T09:00:00Z,25.7020,-81.1860,1.0,27.52,11111222 
ENP,ioos.station.NOAA.NDBC:CNBF1:1,2019-04-08T10:00:00Z,25.7020,-81.1860,1.0,27.39,11111222 
ENP,ioos.station.NOAA.NDBC:CNBF1:1,2019-04-08T11:00:00Z,25.7020,-81.1860,1.0,27.24,11111222 
ENP,ioos.station.NOAA.NDBC:CNBF1:1,2019-04-08T12:00:00Z,25.7020,-81.1860,1.0,27.14,11111222 
ENP,ioos.station.NOAA.NDBC:CNBF1:1,2019-04-08T13:00:00Z,25.7020,-81.1860,1.0,27.05,11111222 
ENP,ioos.station.NOAA.NDBC:CNBF1:1,2019-04-08T14:00:00Z,25.7020,-81.1860,1.0,27.0,11111222 
ENP,ioos.station.NOAA.NDBC:CNBF1:1,2019-04-08T15:00:00Z,25.7020,-81.1860,1.0,27.05,11111222 
ENP,ioos.station.NOAA.NDBC:CNBF1:1,2019-04-08T16:00:00Z,25.7020,-81.1860,1.0,27.28,11111222 
ENP,ioos.station.NOAA.NDBC:CNBF1:1,2019-04-08T17:00:00Z,25.7020,-81.1860,1.0,27.64,11111222 
ENP,ioos.station.NOAA.NDBC:CNBF1:1,2019-04-08T18:00:00Z,25.7020,-81.1860,1.0,28.2,11111222 
ENP,ioos.station.NOAA.NDBC:CNBF1:1,2019-04-08T19:00:00Z,25.7020,-81.1860,1.0,28.53,11111222 
ENP,ioos.station.NOAA.NDBC:CNBF1:1,2019-04-08T20:00:00Z,25.7020,-81.1860,1.0,28.8,11111222 
ENP,ioos.station.NOAA.NDBC:CNBF1:1,2019-04-08T21:00:00Z,25.7020,-81.1860,1.0,29.0,11111222 
ENP,ioos.station.NOAA.NDBC:CNBF1:1,2019-04-08T22:00:00Z,25.7020,-81.1860,1.0,29.12,11111222 
ENP,ioos.station.NOAA.NDBC:CNBF1:1,2019-04-08T23:00:00Z,25.7020,-81.1860,1.0,29.11,11111222 
ENP,ioos.station.NOAA.NDBC:CNBF1:1,2019-04-09T00:00:00Z,25.7020,-81.1860,1.0,29.01,11111222 
ENP,ioos.station.NOAA.NDBC:CNBF1:1,2019-04-09T01:00:00Z,25.7020,-81.1860,1.0,28.9,11111222 
ENP,ioos.station.NOAA.NDBC:CNBF1:1,2019-04-09T02:00:00Z,25.7020,-81.1860,1.0,28.74,11111222 
ENP,ioos.station.NOAA.NDBC:CNBF1:1,2019-04-09T03:00:00Z,25.7020,-81.1860,1.0,28.6,11111222 
ENP,ioos.station.NOAA.NDBC:CNBF1:1,2019-04-09T04:00:00Z,25.7020,-81.1860,1.0,28.46,11111222 
ENP,ioos.station.NOAA.NDBC:CNBF1:1,2019-04-09T05:00:00Z,25.7020,-81.1860,1.0,28.32,11111222 
ENP,ioos.station.NOAA.NDBC:CNBF1:1,2019-04-09T06:00:00Z,25.7020,-81.1860,1.0,28.17,11111222 
ENP,ioos.station.NOAA.NDBC:CNBF1:1,2019-04-09T07:00:00Z,25.7020,-81.1860,1.0,28.03,11111222 
ENP,ioos.station.NOAA.NDBC:CNBF1:1,2019-04-09T08:00:00Z,25.7020,-81.1860,1.0,27.88,11111222 
ENP,ioos.station.NOAA.NDBC:CNBF1:1,2019-04-09T09:00:00Z,25.7020,-81.1860,1.0,27.78,11111222 
ENP,ioos.station.NOAA.NDBC:CNBF1:1,2019-04-09T10:00:00Z,25.7020,-81.1860,1.0,27.71,11111222 
ENP,ioos.station.NOAA.NDBC:CNBF1:1,2019-04-09T11:00:00Z,25.7020,-81.1860,1.0,27.59,11111222 
ENP,ioos.station.NOAA.NDBC:CNBF1:1,2019-04-09T12:00:00Z,25.7020,-81.1860,1.0,27.49,11111222 
ENP,ioos.station.NOAA.NDBC:CNBF1:1,2019-04-09T13:00:00Z,25.7020,-81.1860,1.0,27.39,11111222 
ENP,ioos.station.NOAA.NDBC:CNBF1:1,2019-04-09T14:00:00Z,25.7020,-81.1860,1.0,27.29,11111222 
ENP,ioos.station.NOAA.NDBC:CNBF1:1,2019-04-09T15:00:00Z,25.7020,-81.1860,1.0,27.11,11111222 
ENP,ioos.station.NOAA.NDBC:CNBF1:1,2019-04-09T16:00:00Z,25.7020,-81.1860,1.0,27.0,11111222 
ENP,ioos.station.NOAA.NDBC:CNBF1:1,2019-04-09T17:00:00Z,25.7020,-81.1860,1.0,26.8,11111222 
ENP,ioos.station.NOAA.NDBC:CNBF1:1,2019-04-09T18:00:00Z,25.7020,-81.1860,1.0,26.71,11111222 
ENP,ioos.station.NOAA.NDBC:CNBF1:1,2019-04-09T19:00:00Z,25.7020,-81.1860,1.0,26.64,11111222 
ENP,ioos.station.NOAA.NDBC:CNBF1:1,2019-04-09T20:00:00Z,25.7020,-81.1860,1.0,26.62,11111222 
ENP,ioos.station.NOAA.NDBC:CNBF1:1,2019-04-09T21:00:00Z,25.7020,-81.1860,1.0,26.59,11111222 
ENP,ioos.station.NOAA.NDBC:CNBF1:1,2019-04-09T22:00:00Z,25.7020,-81.1860,1.0,26.47,11111222 
ENP,ioos.station.NOAA.NDBC:CNBF1:1,2019-04-09T23:00:00Z,25.7020,-81.1860,1.0,26.39,11111222 
ENP,ioos.station.NOAA.NDBC:CNBF1:1,2019-04-10T00:00:00Z,25.7020,-81.1860,1.0,26.33,11111222 
ENP,ioos.station.NOAA.NDBC:CNBF1:1,2019-04-10T01:00:00Z,25.7020,-81.1860,1.0,26.28,11111222 
ENP,ioos.station.NOAA.NDBC:CNBF1:1,2019-04-10T02:00:00Z,25.7020,-81.1860,1.0,26.2,11111222 
ENP,ioos.station.NOAA.NDBC:CNBF1:1,2019-04-10T03:00:00Z,25.7020,-81.1860,1.0,26.1,11111222 
ENP,ioos.station.NOAA.NDBC:CNBF1:1,2019-04-10T04:00:00Z,25.7020,-81.1860,1.0,26.02,11111222 
ENP,ioos.station.NOAA.NDBC:CNBF1:1,2019-04-10T05:00:00Z,25.7020,-81.1860,1.0,25.92,11111222 
ENP,ioos.station.NOAA.NDBC:CNBF1:1,2019-04-10T06:00:00Z,25.7020,-81.1860,1.0,25.81,11111222 
ENP,ioos.station.NOAA.NDBC:CNBF1:1,2019-04-10T07:00:00Z,25.7020,-81.1860,1.0,25.73,11111222 
ENP,ioos.station.NOAA.NDBC:CNBF1:1,2019-04-10T08:00:00Z,25.7020,-81.1860,1.0,25.64,11111222 
ENP,ioos.station.NOAA.NDBC:CNBF1:1,2019-04-10T09:00:00Z,25.7020,-81.1860,1.0,25.57,11111222 
ENP,ioos.station.NOAA.NDBC:CNBF1:1,2019-04-10T10:00:00Z,25.7020,-81.1860,1.0,25.49,11111222 
ENP,ioos.station.NOAA.NDBC:CNBF1:1,2019-04-10T11:00:00Z,25.7020,-81.1860,1.0,25.42,11111222 
ENP,ioos.station.NOAA.NDBC:CNBF1:1,2019-04-10T12:00:00Z,25.7020,-81.1860,1.0,25.36,11111222 
ENP,ioos.station.NOAA.NDBC:CNBF1:1,2019-04-10T13:00:00Z,25.7020,-81.1860,1.0,25.28,11111222 
ENP,ioos.station.NOAA.NDBC:CNBF1:1,2019-04-10T14:00:00Z,25.7020,-81.1860,1.0,25.27,11111222 
ENP,ioos.station.NOAA.NDBC:CNBF1:1,2019-04-10T15:00:00Z,25.7020,-81.1860,1.0,25.41,11111222 
ENP,ioos.station.NOAA.NDBC:CNBF1:1,2019-04-10T16:00:00Z,25.7020,-81.1860,1.0,25.59,11111222 
ENP,ioos.station.NOAA.NDBC:CNBF1:1,2019-04-10T17:00:00Z,25.7020,-81.1860,1.0,26.0,11111222 
ENP,ioos.station.NOAA.NDBC:CNBF1:1,2019-04-10T18:00:00Z,25.7020,-81.1860,1.0,26.35,11111222 
ENP,ioos.station.NOAA.NDBC:CNBF1:1,2019-04-10T19:00:00Z,25.7020,-81.1860,1.0,26.81,11111222 
ENP,ioos.station.NOAA.NDBC:CNBF1:1,2019-04-10T20:00:00Z,25.7020,-81.1860,1.0,27.15,11111222 
ENP,ioos.station.NOAA.NDBC:CNBF1:1,2019-04-10T21:00:00Z,25.7020,-81.1860,1.0,27.27,11111222 
ENP,ioos.station.NOAA.NDBC:CNBF1:1,2019-04-10T22:00:00Z,25.7020,-81.1860,1.0,27.34,11111222 
ENP,ioos.station.NOAA.NDBC:CNBF1:1,2019-04-10T23:00:00Z,25.7020,-81.1860,1.0,27.34,11111222 
ENP,ioos.station.NOAA.NDBC:CNBF1:1,2019-04-11T00:00:00Z,25.7020,-81.1860,1.0,27.27,11111222 
ENP,ioos.station.NOAA.NDBC:CNBF1:1,2019-04-11T01:00:00Z,25.7020,-81.1860,1.0,27.19,11111222 
ENP,ioos.station.NOAA.NDBC:CNBF1:1,2019-04-11T02:00:00Z,25.7020,-81.1860,1.0,27.09,11111222 
ENP,ioos.station.NOAA.NDBC:CNBF1:1,2019-04-11T03:00:00Z,25.7020,-81.1860,1.0,27.0,11111222 
ENP,ioos.station.NOAA.NDBC:CNBF1:1,2019-04-11T04:00:00Z,25.7020,-81.1860,1.0,26.87,11111222 
ENP,ioos.station.NOAA.NDBC:CNBF1:1,2019-04-11T05:00:00Z,25.7020,-81.1860,1.0,26.75,11111222 
ENP,ioos.station.NOAA.NDBC:CNBF1:1,2019-04-11T06:00:00Z,25.7020,-81.1860,1.0,26.6,11111222 
ENP,ioos.station.NOAA.NDBC:CNBF1:1,2019-04-11T07:00:00Z,25.7020,-81.1860,1.0,26.46,11111222 
ENP,ioos.station.NOAA.NDBC:CNBF1:1,2019-04-11T08:00:00Z,25.7020,-81.1860,1.0,26.34,11111222 
ENP,ioos.station.NOAA.NDBC:CNBF1:1,2019-04-11T09:00:00Z,25.7020,-81.1860,1.0,26.21,11111222 
ENP,ioos.station.NOAA.NDBC:CNBF1:1,2019-04-11T10:00:00Z,25.7020,-81.1860,1.0,26.1,11111222 
ENP,ioos.station.NOAA.NDBC:CNBF1:1,2019-04-11T11:00:00Z,25.7020,-81.1860,1.0,25.95,11111222 
ENP,ioos.station.NOAA.NDBC:CNBF1:1,2019-04-11T12:00:00Z,25.7020,-81.1860,1.0,25.83,11111222 
ENP,ioos.station.NOAA.NDBC:CNBF1:1,2019-04-11T13:00:00Z,25.7020,-81.1860,1.0,25.7,11111222 
ENP,ioos.station.NOAA.NDBC:CNBF1:1,2019-04-11T14:00:00Z,25.7020,-81.1860,1.0,25.6,11111222 
ENP,ioos.station.NOAA.NDBC:CNBF1:1,2019-04-11T15:00:00Z,25.7020,-81.1860,1.0,25.68,11111222 
ENP,ioos.station.NOAA.NDBC:CNBF1:1,2019-04-11T16:00:00Z,25.7020,-81.1860,1.0,26.0,11111222 
ENP,ioos.station.NOAA.NDBC:CNBF1:1,2019-04-11T17:00:00Z,25.7020,-81.1860,1.0,26.59,11111222 